Find Starlink 38212

NORAD ID: 100267 Int'l Des: 2026-181 Owner: SPXS Country: US Constellation: starlink operational

現在のビュー

3D地球を読み込み中...

About Starlink 38212

Starlink 38212 (NORAD 100267) is a starlink constellation satellite launched Aug 8, 2026 by SPXS of US. with a mass of 575.00 kg.

次回通過

Passes for default location (London). Set your location on the main map for personalized predictions.

高度履歴

Loading altitude history...

軌道要素

1 A0267U 26181X 26263.63315862 .00209541 00000-0 13690-2 0 9998
2 A0267 97.2861 307.2695 0000903 87.7448 272.3920 15.75232448 7971
Epoch: Sep 20, 2026 • Age: 4 hours

現在のステータス

高度 346.6 km
遠地点 / 近地点 N/A
速度 7.70 km/s
衛星直下点 23.47°N, 152.68°W
打ち上げ日 Aug 8, 2026
運用期間 0.1 years
タイプ internet

技術仕様

分類 Payload
質量 575.00 kg
乾燥質量 530.00 kg
長さ 0.30 m
スパン 29.00 m
形状 ? Box + pan
製造者 SPXS
バスタイプ Starlink V2MO
フェーズステータス In Orbit
所有者/国 SPXS/US

Most Searched